Location: Dziadowski
(50.3833°N, 20.0333°E)
Time: 20:51:33
(UTC+00:00)

Okean 1-7 - Pass Details

Date: 18 January 2026
Orbit: 566 x 588 km, 82.5° (Epoch: 14 February)

Event Time Altitude Azimuth Distance (km) Brightness Sun altitude
Exits shadow 04:51:42 - 347° (NNW) 2,287 5.7 -15.4°
Reaches altitude 10° 04:52:41 10° 346° (NNW) 1,885 5.3 -15.3°
Maximum altitude 04:56:49 70° 263° (W) 614 2.8 -14.7°
Drops below altitude 10° 05:00:57 10° 180° (S) 1,882 5.7 -14.0°
Sets 05:03:08 0° 178° (S) 2,779 6.7 -13.7°
